Погода в Гиблицах

Россия / Рязанская область     54°57′49″N   41°05′26″E
темп.,
°C
ветер,
м/с
пор.,
м/с
влажн.,
%
обл.,
%
осадки,
мм/ч
давл.,
гПа
погр.,
м
26 июля, пн
пн2600:00+16ююз225371 0.0 102227
03:00+15юз225599 0.0 102335
06:00+15юз1160100 0.0 102334
09:00+21юз125048 0.0 1023381
12:00+25сз243381 0.0 10232523
15:00+26зсз2431100 0.0 10212763
18:00+23зюз115168 0.0 102115
21:00+19ююв2256100 0.0 102111
27 июля, вт
вт2700:00+19юз2354100 0.0 102154
03:00+18з245796 0.0 102187
06:00+18зсз236611 0.0 102182
09:00+25ссз12430 0.0 1021570
12:00+28сз233143 0.0 10202746
15:00+28сз233098 0.0 10182619
18:00+27з113921 0.0 1017471
21:00+17з25808 0.3 101898
28 июля, ср
ср2800:00+15з22822 0.0 101818
03:00+14зюз22860 0.0 101818
06:00+17сз00810 0.0 101735
09:00+24юз225538 0.0 1016549
12:00+28юз23397 0.0 10151864
15:00+27зюз254615 0.0 1013300
18:00+18юз4118741 1.4 1013276
21:00+17ююв229283 1.7 101319
29 июля, чт
чт2900:00+17ююз2691100 0.0 1011156
03:00+17ююв31092100 0.3 1009309
06:00+17ююз41092100 0.4 1007498
09:00+18юз3894100 0.6 1006539
12:00+22з467889 0.1 1006808
15:00+25з4760100 0.3 10061359
18:00+24зсз4763100 0.1 1005819
21:00+20юз3880100 0.1 1005162
30 июля, пт
пт3000:00+18зюз2680100 0.0 100696
03:00+19зюз26776 0.1 1006147
06:00+19з13805 0.1 1007102
09:00+25зюз23545 0.1 1007730
12:00+29з35385 0.0 10062143
15:00+30зюз453485 0.0 10052674
18:00+26юз375577 0.0 1005235
21:00+21з226919 0.0 100626